This demonstration page uses our WeatherBlox Daily Observations layout. Learn more.

Left ArrowRight Arrow

Hourly Observations for May 16, 2022

Temp ( °F °C ) Dew Point ( °F °C ) Humidity (%) Winds ( mph kmh ) Pressure ( in mb ) Visibility ( mi km ) Precip ( " mm )
12:53 am 00:53 Clear 51 10.6 29 -1.7 43 43 ESE 5 7 29.85 1011 10 16 0.00 0.00
1:53 am 01:53 Clear 50 10 30 -1.1 46 46 NNW 3 6 29.84 1011 10 16 0.00 0.00
2:53 am 02:53 Clear 49 9.4 30 -1.1 48 48 Calm 29.83 1010 10 16 0.00 0.00
3:53 am 03:53 Mostly Cloudy 52 11.1 30 -1.1 43 43 WSW 10 17 29.85 1011 10 16 0.00 0.00
4:53 am 04:53 Mostly Cloudy 57 13.9 38 3.3 49 49 SW 13 20 29.82 1010 10 16 0.00 0.00
5:53 am 05:53 Partly Cloudy 57 13.9 42 5.6 58 58 SW 16 26 29.82 1010 10 16 0.00 0.00
6:53 am 06:53 Cloudy 57 13.9 44 6.7 62 62 WSW 14 22 29.83 1010 10 16 0.00 0.00
7:53 am 07:53 Sunny 59 15 46 7.8 62 62 SW 22 35 29.85 1011 9 14 0.00 0.00
8:53 am 08:53 Sunny 63 17.2 47 8.3 56 56 SW 22 35 29.84 1011 10 16 0.00 0.00
9:53 am 09:53 Sunny 68 20 47 8.3 47 47 SW 18 30 29.83 1010 10 16 0.00 0.00
10:53 am 10:53 Sunny 73 22.8 39 3.9 29 29 W 15 24 29.80 1009 10 16 0.00 0.00
11:53 am 11:53 Mostly Sunny 75 23.9 37 2.8 25 25 W 15 24 29.80 1009 10 16 0.00 0.00
12:53 pm 12:53 Sunny 76 24.4 36 2.2 23 23 W 7 11 29.78 1009 10 16 0.00 0.00
1:53 pm 13:53 Partly Cloudy 77 25 33 0.6 20 20 W 13 20 29.77 1008 10 16 0.00 0.00
2:53 pm 14:53 Mostly Sunny 79 26.1 29 -1.7 16 16 W 17 28 29.76 1008 10 16 0.00 0.00
3:53 pm 15:53 Mostly Sunny 80 26.7 28 -2.2 15 15 W 17 28 29.74 1007 10 16 0.00 0.00
4:53 pm 16:53 Sunny 77 25 30 -1.1 18 18 W 21 33 29.74 1007 10 16 0.00 0.00
5:53 pm 17:53 Mostly Sunny 75 23.9 31 -0.6 20 20 WNW 20 31 29.75 1007 10 16 0.00 0.00
6:53 pm 18:53 Sunny 73 22.8 31 -0.6 21 21 WNW 22 35 29.75 1007 10 16 0.00 0.00
7:53 pm 19:53 Sunny 71 21.7 32 0 24 24 W 13 20 29.76 1008 10 16 0.00 0.00
8:53 pm 20:53 Mostly Cloudy 65 18.3 31 -0.6 28 28 SW 8 13 29.78 1009 10 16 0.00 0.00
9:53 pm 21:53 Clear 63 17.2 32 0 31 31 WSW 9 15 29.79 1009 10 16 0.00 0.00
10:53 pm 22:53 Clear 58 14.4 32 0 38 38 SSW 5 7 29.78 1009 10 16 0.00 0.00
11:53 pm 23:53 Clear 54 12.2 32 0 43 43 VRB 5 7 29.80 1009 10 16 0.00 0.00

Powered by AerisWeather